When you browse on this site, cookies collect data to enhance your experience and personalize the content and advertising you see.
Visit our Privacy Policy to learn more. By continuing to use the site, you agree to this use of cookies and data.
  • In Netherlands
  • List of Countries
  • For 7 days
  • Water Temperature
  • Weather Map
  • Weather Widgets
  • user-avatar
    Login

    Hourly Weather Tienen

    Today, 3 April, Friday

    Time Temperature Precipitation Wind Pressure Humidity
    00:00 +5°C° 0 mm 4 mps 755 mmHg 90%
    01:00 +5°C° 0 mm 4 mps 755 mmHg 91%
    02:00 +5°C° 0 mm 4 mps 755 mmHg 93%
    03:00 +5°C° 0 mm 4 mps 755 mmHg 94%
    04:00 +4°C° 0 mm 3 mps 755 mmHg 94%
    05:00 +3°C° 0 mm 3 mps 756 mmHg 93%
    06:00 +3°C° 0 mm 3 mps 756 mmHg 93%
    07:00 +4°C° 0 mm 3 mps 756 mmHg 85%
    08:00 +6°C° 0 mm 4 mps 757 mmHg 76%
    09:00 +8°C° 0 mm 4 mps 757 mmHg 68%
    10:00 +8°C° 0 mm 4 mps 757 mmHg 66%
    11:00 +8°C° 0 mm 4 mps 757 mmHg 63%
    12:00 +10°C° 0 mm 4 mps 758 mmHg 60%
    13:00 +10°C° 0 mm 4 mps 758 mmHg 59%
    14:00 +10°C° 0 mm 4 mps 758 mmHg 58%
    15:00 +10°C° 0 mm 4 mps 758 mmHg 56%
    16:00 +8°C° 0 mm 4 mps 758 mmHg 59%
    17:00 +8°C° 0 mm 3 mps 758 mmHg 62%
    18:00 +7°C° 0 mm 3 mps 759 mmHg 66%
    19:00 +6°C° 0 mm 2 mps 759 mmHg 69%
    20:00 +4°C° 0 mm 2 mps 760 mmHg 72%
    21:00 +4°C° 0 mm 1 mps 760 mmHg 75%
    22:00 +4°C° 0 mm 1 mps 760 mmHg 75%
    23:00 +4°C° 0 mm 1 mps 761 mmHg 74%

    Tomorrow, 4 April, Saturday

    Time Temperature Precipitation Wind Pressure Humidity
    00:00 +2°C° 0 mm 0 mps 761 mmHg 74%
    01:00 +2°C° 0 mm 0 mps 761 mmHg 75%
    02:00 +2°C° 0 mm 0 mps 761 mmHg 76%
    03:00 +2°C° 0 mm 1 mps 761 mmHg 77%
    04:00 +2°C° 0 mm 1 mps 762 mmHg 77%
    05:00 +3°C° 0 mm 1 mps 762 mmHg 77%
    06:00 +3°C° 0 mm 1 mps 763 mmHg 77%
    07:00 +5°C° 0 mm 1 mps 763 mmHg 70%
    08:00 +6°C° 0 mm 2 mps 763 mmHg 62%
    09:00 +8°C° 0 mm 2 mps 763 mmHg 55%
    10:00 +9°C° 0 mm 2 mps 763 mmHg 52%
    11:00 +12°C° 0 mm 2 mps 763 mmHg 49%
    12:00 +13°C° 0 mm 2 mps 762 mmHg 46%
    13:00 +14°C° 0 mm 2 mps 762 mmHg 46%
    14:00 +14°C° 0 mm 2 mps 762 mmHg 46%
    15:00 +15°C° 0 mm 2 mps 761 mmHg 46%
    16:00 +14°C° 0 mm 2 mps 761 mmHg 53%
    17:00 +12°C° 0 mm 2 mps 761 mmHg 60%
    18:00 +10°C° 0 mm 2 mps 762 mmHg 67%
    19:00 +9°C° 0 mm 2 mps 762 mmHg 69%
    20:00 +8°C° 0 mm 3 mps 762 mmHg 72%
    21:00 +7°C° 0 mm 3 mps 762 mmHg 74%
    22:00 +7°C° 0 mm 3 mps 762 mmHg 75%
    23:00 +5°C° 0 mm 3 mps 762 mmHg 76%

    Day after tomorrow, 5 April, Sunday

    Time Temperature Precipitation Wind Pressure Humidity
    00:00 +5°C° 0 mm 3 mps 762 mmHg 77%
    01:00 +5°C° 0 mm 3 mps 762 mmHg 78%
    02:00 +5°C° 0 mm 3 mps 762 mmHg 79%
    03:00 +4°C° 0 mm 3 mps 761 mmHg 80%
    04:00 +5°C° 0 mm 3 mps 761 mmHg 79%
    05:00 +5°C° 0 mm 4 mps 761 mmHg 78%
    06:00 +5°C° 0 mm 4 mps 761 mmHg 77%
    07:00 +8°C° 0 mm 4 mps 760 mmHg 71%
    08:00 +10°C° 0 mm 5 mps 760 mmHg 65%
    09:00 +14°C° 0 mm 6 mps 760 mmHg 58%
    10:00 +15°C° 0 mm 5 mps 760 mmHg 55%
    11:00 +17°C° 0 mm 5 mps 759 mmHg 53%
    12:00 +19°C° 0 mm 5 mps 759 mmHg 50%
    13:00 +19°C° 0 mm 5 mps 759 mmHg 50%
    14:00 +20°C° 0 mm 5 mps 758 mmHg 50%
    15:00 +20°C° 0 mm 5 mps 758 mmHg 50%
    16:00 +18°C° 0 mm 4 mps 758 mmHg 56%
    17:00 +17°C° 0 mm 4 mps 758 mmHg 63%
    18:00 +14°C° 0 mm 3 mps 758 mmHg 69%
    19:00 +13°C° 0 mm 4 mps 758 mmHg 70%
    20:00 +13°C° 0 mm 4 mps 758 mmHg 71%
    21:00 +12°C° 0 mm 5 mps 758 mmHg 72%
    22:00 +11°C° 0 mm 4 mps 758 mmHg 72%
    23:00 +11°C° 0 mm 4 mps 758 mmHg 73%

    6 April, Monday

    Time Temperature Precipitation Wind Pressure Humidity
    00:00 +11°C° 0 mm 4 mps 758 mmHg 74%
    01:00 +10°C° 0 mm 4 mps 757 mmHg 71%
    02:00 +9°C° 0 mm 5 mps 757 mmHg 69%
    03:00 +9°C° 0 mm 5 mps 757 mmHg 67%
    04:00 +9°C° 0 mm 5 mps 757 mmHg 67%
    05:00 +9°C° 0 mm 6 mps 757 mmHg 66%
    06:00 +9°C° 0 mm 6 mps 758 mmHg 65%
    07:00 +10°C° 0 mm 6 mps 758 mmHg 60%
    08:00 +12°C° 0 mm 7 mps 758 mmHg 55%
    09:00 +15°C° 0 mm 7 mps 758 mmHg 51%
    10:00 +16°C° 0 mm 7 mps 758 mmHg 49%
    11:00 +17°C° 0 mm 7 mps 758 mmHg 47%
    12:00 +18°C° 0 mm 7 mps 758 mmHg 45%
    13:00 +18°C° 0 mm 7 mps 758 mmHg 47%
    14:00 +18°C° 0 mm 7 mps 759 mmHg 50%
    15:00 +18°C° 0 mm 7 mps 759 mmHg 53%
    16:00 +16°C° 0 mm 7 mps 759 mmHg 60%
    17:00 +14°C° 0 mm 6 mps 760 mmHg 68%
    18:00 +11°C° 0 mm 6 mps 760 mmHg 76%
    19:00 +10°C° 0.2 mm 5 mps 761 mmHg 80%
    20:00 +11°C° 0.2 mm 4 mps 762 mmHg 85%
    21:00 +10°C° 0.2 mm 4 mps 763 mmHg 90%
    22:00 +10°C° 0 mm 3 mps 763 mmHg 91%
    23:00 +10°C° 0 mm 3 mps 764 mmHg 91%

    7 April, Tuesday

    Time Temperature Precipitation Wind Pressure Humidity
    00:00 +9°C° 0 mm 3 mps 765 mmHg 92%
    01:00 +9°C° 0 mm 3 mps 765 mmHg 93%
    02:00 +8°C° 0 mm 3 mps 766 mmHg 94%
    03:00 +7°C° 0 mm 2 mps 766 mmHg 96%
    04:00 +7°C° 0 mm 2 mps 767 mmHg 95%
    05:00 +7°C° 0 mm 2 mps 767 mmHg 94%
    06:00 +7°C° 0 mm 2 mps 768 mmHg 93%
    07:00 +9°C° 0 mm 2 mps 768 mmHg 85%
    08:00 +10°C° 0 mm 2 mps 769 mmHg 77%
    09:00 +13°C° 0 mm 1 mps 769 mmHg 69%
    10:00 +15°C° 0 mm 1 mps 769 mmHg 63%
    11:00 +16°C° 0 mm 1 mps 770 mmHg 57%
    12:00 +18°C° 0 mm 1 mps 770 mmHg 51%
    13:00 +18°C° 0 mm 1 mps 770 mmHg 49%
    14:00 +19°C° 0 mm 1 mps 770 mmHg 46%
    15:00 +19°C° 0 mm 1 mps 770 mmHg 44%
    16:00 +16°C° 0 mm 1 mps 770 mmHg 50%
    17:00 +15°C° 0 mm 1 mps 770 mmHg 55%
    18:00 +14°C° 0 mm 1 mps 770 mmHg 61%
    19:00 +13°C° 0 mm 1 mps 770 mmHg 63%
    20:00 +12°C° 0 mm 2 mps 770 mmHg 66%
    21:00 +10°C° 0 mm 2 mps 770 mmHg 69%
    22:00 +9°C° 0 mm 2 mps 771 mmHg 71%
    23:00 +9°C° 0 mm 2 mps 771 mmHg 73%

    8 April, Wednesday

    Time Temperature Precipitation Wind Pressure Humidity
    00:00 +8°C° 0 mm 2 mps 771 mmHg 75%
    01:00 +8°C° 0 mm 2 mps 770 mmHg 78%
    02:00 +9°C° 0 mm 1 mps 770 mmHg 82%
    03:00 +8°C° 0 mm 1 mps 770 mmHg 85%
    04:00 +7°C° 0 mm 2 mps 770 mmHg 87%
    05:00 +8°C° 0 mm 2 mps 770 mmHg 89%
    06:00 +8°C° 0 mm 2 mps 770 mmHg 91%
    07:00 +10°C° 0 mm 2 mps 769 mmHg 83%
    08:00 +13°C° 0 mm 3 mps 769 mmHg 75%
    09:00 +16°C° 0 mm 3 mps 769 mmHg 68%
    10:00 +17°C° 0 mm 3 mps 768 mmHg 63%
    11:00 +19°C° 0 mm 3 mps 768 mmHg 59%
    12:00 +20°C° 0 mm 3 mps 768 mmHg 55%
    13:00 +21°C° 0 mm 3 mps 767 mmHg 53%
    14:00 +21°C° 0 mm 2 mps 767 mmHg 51%
    15:00 +23°C° 0 mm 2 mps 766 mmHg 49%
    16:00 +20°C° 0 mm 2 mps 766 mmHg 55%
    17:00 +19°C° 0 mm 2 mps 765 mmHg 60%
    18:00 +17°C° 0 mm 2 mps 765 mmHg 65%
    19:00 +16°C° 0 mm 2 mps 765 mmHg 68%
    20:00 +15°C° 0 mm 2 mps 765 mmHg 70%
    21:00 +14°C° 0 mm 2 mps 766 mmHg 72%
    22:00 +13°C° 0 mm 2 mps 765 mmHg 75%
    23:00 +13°C° 0 mm 2 mps 765 mmHg 78%
    Show more